• In Spain
  • List of Countries
  • For 7 days
  • Water Temperature
  • Satellite Maps
  • Weather Map
  • Weather Widgets
  • user-avatar
    Login

    Hourly Weather Mishina Niva

    Today, 25 September, Tuesday

    Time Temperature Precipitation Wind Pressure Humidity
    00:00 +4°C° 1 mm 6 mps 726 mmHg 92%
    01:00 +5°C° 1 mm 6 mps 726 mmHg 92%
    02:00 +5°C° 1 mm 6 mps 727 mmHg 91%
    03:00 +4°C° 0.3 mm 6 mps 727 mmHg 90%
    04:00 +4°C° 0.3 mm 6 mps 728 mmHg 90%
    05:00 +4°C° 0.3 mm 6 mps 729 mmHg 89%
    06:00 +4°C° 0 mm 6 mps 729 mmHg 88%
    07:00 +4°C° 0 mm 6 mps 730 mmHg 87%
    08:00 +4°C° 0 mm 6 mps 731 mmHg 86%
    09:00 +4°C° 0 mm 6 mps 732 mmHg 84%
    10:00 +5°C° 0 mm 6 mps 733 mmHg 82%
    11:00 +5°C° 0 mm 6 mps 733 mmHg 80%
    12:00 +5°C° 0 mm 6 mps 734 mmHg 76%
    13:00 +7°C° 0 mm 6 mps 735 mmHg 72%
    14:00 +7°C° 0 mm 6 mps 735 mmHg 68%
    15:00 +7°C° 0 mm 5 mps 736 mmHg 69%
    16:00 +7°C° 0 mm 5 mps 737 mmHg 69%
    17:00 +6°C° 0 mm 4 mps 737 mmHg 70%
    18:00 +5°C° 0 mm 4 mps 738 mmHg 73%
    19:00 +4°C° 0 mm 4 mps 739 mmHg 75%
    20:00 +4°C° 0 mm 4 mps 740 mmHg 78%
    21:00 +3°C° 0 mm 4 mps 740 mmHg 77%
    22:00 +3°C° 0 mm 4 mps 741 mmHg 75%
    23:00 +3°C° 0 mm 4 mps 741 mmHg 74%

    Tomorrow, 26 September, Wednesday

    Time Temperature Precipitation Wind Pressure Humidity
    00:00 +1°C° 0 mm 4 mps 742 mmHg 74%
    01:00 +1°C° 0 mm 4 mps 742 mmHg 74%
    02:00 +2°C° 0 mm 3 mps 743 mmHg 74%
    03:00 +1°C° 0 mm 3 mps 743 mmHg 77%
    04:00 +1°C° 0 mm 3 mps 744 mmHg 80%
    05:00 0°C° 0 mm 3 mps 744 mmHg 82%
    06:00 +1°C° 0 mm 3 mps 744 mmHg 82%
    07:00 +3°C° 0 mm 3 mps 745 mmHg 81%
    08:00 +4°C° 0 mm 3 mps 745 mmHg 80%
    09:00 +5°C° 0 mm 4 mps 745 mmHg 72%
    10:00 +7°C° 0 mm 4 mps 745 mmHg 64%
    11:00 +10°C° 0 mm 4 mps 745 mmHg 56%
    12:00 +9°C° 0 mm 5 mps 744 mmHg 54%
    13:00 +10°C° 0 mm 5 mps 743 mmHg 52%
    14:00 +10°C° 0 mm 5 mps 743 mmHg 50%
    15:00 +9°C° 0 mm 5 mps 742 mmHg 54%
    16:00 +8°C° 0 mm 5 mps 741 mmHg 58%
    17:00 +8°C° 0 mm 5 mps 740 mmHg 62%
    18:00 +7°C° 0.5 mm 6 mps 739 mmHg 70%
    19:00 +7°C° 0.5 mm 6 mps 738 mmHg 77%
    20:00 +5°C° 0.5 mm 7 mps 737 mmHg 85%
    21:00 +5°C° 1.5 mm 7 mps 736 mmHg 86%
    22:00 +5°C° 1.5 mm 8 mps 735 mmHg 88%
    23:00 +5°C° 1.5 mm 8 mps 733 mmHg 89%

    Day after tomorrow, 27 September, Thursday

    Time Temperature Precipitation Wind Pressure Humidity
    00:00 +5°C° 1.1 mm 8 mps 732 mmHg 90%
    01:00 +6°C° 1.1 mm 7 mps 731 mmHg 90%
    02:00 +6°C° 1.1 mm 7 mps 731 mmHg 91%
    03:00 +7°C° 1.3 mm 6 mps 730 mmHg 91%
    04:00 +7°C° 1.3 mm 6 mps 730 mmHg 91%
    05:00 +8°C° 1.3 mm 5 mps 730 mmHg 91%
    06:00 +7°C° 0.1 mm 5 mps 731 mmHg 88%
    07:00 +7°C° 0.1 mm 5 mps 731 mmHg 85%
    08:00 +7°C° 0.1 mm 5 mps 731 mmHg 83%
    09:00 +8°C° 0.1 mm 5 mps 731 mmHg 77%
    10:00 +8°C° 0.1 mm 6 mps 732 mmHg 72%
    11:00 +9°C° 0.1 mm 6 mps 732 mmHg 66%
    12:00 +9°C° 0.2 mm 6 mps 732 mmHg 65%
    13:00 +9°C° 0.2 mm 6 mps 733 mmHg 64%
    14:00 +9°C° 0.2 mm 6 mps 733 mmHg 63%
    15:00 +8°C° 0 mm 6 mps 733 mmHg 65%
    16:00 +8°C° 0 mm 5 mps 734 mmHg 67%
    17:00 +7°C° 0 mm 4 mps 734 mmHg 69%
    18:00 +7°C° 0 mm 4 mps 735 mmHg 71%
    19:00 +6°C° 0 mm 4 mps 735 mmHg 73%
    20:00 +5°C° 0 mm 3 mps 736 mmHg 75%
    21:00 +5°C° 0 mm 3 mps 736 mmHg 77%
    22:00 +5°C° 0 mm 3 mps 736 mmHg 78%
    23:00 +4°C° 0 mm 3 mps 736 mmHg 79%

    28 September, Friday

    Time Temperature Precipitation Wind Pressure Humidity
    00:00 +4°C° 0 mm 3 mps 736 mmHg 82%
    01:00 +3°C° 0 mm 3 mps 736 mmHg 84%
    02:00 +3°C° 0 mm 3 mps 735 mmHg 86%
    03:00 +4°C° 0.1 mm 3 mps 734 mmHg 84%
    04:00 +4°C° 0.1 mm 4 mps 733 mmHg 82%
    05:00 +5°C° 0.1 mm 5 mps 732 mmHg 80%
    06:00 +7°C° 0.8 mm 6 mps 731 mmHg 83%
    07:00 +9°C° 0.8 mm 7 mps 729 mmHg 87%
    08:00 +10°C° 0.8 mm 7 mps 728 mmHg 90%
    09:00 +11°C° 1.1 mm 8 mps 727 mmHg 88%
    10:00 +11°C° 1.1 mm 8 mps 727 mmHg 87%
    11:00 +11°C° 1.1 mm 8 mps 726 mmHg 85%
    12:00 +11°C° 0.8 mm 8 mps 727 mmHg 83%
    13:00 +11°C° 0.8 mm 7 mps 727 mmHg 80%
    14:00 +11°C° 0.8 mm 7 mps 728 mmHg 77%
    15:00 +9°C° 0.2 mm 6 mps 729 mmHg 80%
    16:00 +7°C° 0.2 mm 6 mps 730 mmHg 83%
    17:00 +5°C° 0.2 mm 5 mps 731 mmHg 86%
    18:00 +4°C° 0 mm 4 mps 732 mmHg 87%
    19:00 +4°C° 0 mm 4 mps 734 mmHg 89%
    20:00 +3°C° 0 mm 3 mps 735 mmHg 91%
    21:00 +3°C° 0 mm 2 mps 736 mmHg 93%
    22:00 +3°C° 0 mm 2 mps 737 mmHg 94%
    23:00 +2°C° 0 mm 2 mps 737 mmHg 96%

    29 September, Saturday

    Time Temperature Precipitation Wind Pressure Humidity
    00:00 +3°C° 0 mm 1 mps 738 mmHg 97%
    01:00 +3°C° 0 mm 1 mps 738 mmHg 97%
    02:00 +3°C° 0 mm 1 mps 739 mmHg 97%
    03:00 +3°C° 0.1 mm 1 mps 739 mmHg 96%
    04:00 +3°C° 0.1 mm 1 mps 739 mmHg 96%
    05:00 +3°C° 0.1 mm 1 mps 739 mmHg 95%
    06:00 +3°C° 0.3 mm 1 mps 740 mmHg 94%
    07:00 +4°C° 0.3 mm 1 mps 740 mmHg 92%
    08:00 +5°C° 0.3 mm 1 mps 741 mmHg 90%
    09:00 +5°C° 0.2 mm 1 mps 741 mmHg 87%
    10:00 +4°C° 0.2 mm 2 mps 742 mmHg 84%
    11:00 +5°C° 0.2 mm 2 mps 742 mmHg 81%
    12:00 +5°C° 0.1 mm 2 mps 743 mmHg 76%
    13:00 +6°C° 0.1 mm 2 mps 743 mmHg 72%
    14:00 +7°C° 0.1 mm 2 mps 743 mmHg 67%
    15:00 +6°C° 0 mm 2 mps 744 mmHg 69%
    16:00 +5°C° 0 mm 2 mps 744 mmHg 72%
    17:00 +5°C° 0 mm 1 mps 744 mmHg 74%
    18:00 +4°C° 0 mm 1 mps 745 mmHg 76%
    19:00 +3°C° 0 mm 1 mps 746 mmHg 78%
    20:00 +2°C° 0 mm 1 mps 746 mmHg 80%
    21:00 +2°C° 0 mm 1 mps 746 mmHg 81%
    22:00 +2°C° 0 mm 1 mps 747 mmHg 81%
    23:00 +2°C° 0 mm 1 mps 747 mmHg 82%

    30 September, Sunday

    Time Temperature Precipitation Wind Pressure Humidity
    00:00 +1°C° 0 mm 1 mps 747 mmHg 84%
    01:00 +1°C° 0 mm 1 mps 747 mmHg 86%
    02:00 +1°C° 0 mm 1 mps 748 mmHg 88%
    03:00 +1°C° 0 mm 1 mps 748 mmHg 90%
    04:00 +1°C° 0 mm 1 mps 748 mmHg 91%
    05:00 -2°C° 0 mm 2 mps 748 mmHg 93%
    06:00 +1°C° 0 mm 2 mps 748 mmHg 88%
    07:00 +2°C° 0 mm 2 mps 748 mmHg 84%
    08:00 +3°C° 0 mm 2 mps 748 mmHg 80%
    09:00 +4°C° 0 mm 3 mps 748 mmHg 72%
    10:00 +5°C° 0 mm 3 mps 747 mmHg 65%
    11:00 +7°C° 0 mm 4 mps 747 mmHg 58%
    12:00 +7°C° 0 mm 4 mps 747 mmHg 57%
    13:00 +8°C° 0 mm 4 mps 746 mmHg 55%
    14:00 +8°C° 0 mm 4 mps 746 mmHg 54%
    15:00 +7°C° 0 mm 4 mps 746 mmHg 59%
    16:00 +7°C° 0 mm 3 mps 745 mmHg 65%
    17:00 +5°C° 0 mm 3 mps 745 mmHg 70%
    18:00 +5°C° 0 mm 3 mps 745 mmHg 72%
    19:00 +4°C° 0 mm 3 mps 744 mmHg 74%
    20:00 +4°C° 0 mm 3 mps 744 mmHg 76%
    21:00 +4°C° 0 mm 4 mps 744 mmHg 76%
    22:00 +4°C° 0 mm 4 mps 744 mmHg 76%
    23:00 +4°C° 0 mm 4 mps 744 mmHg 76%
    Show more